Dades meteomassalio
Diari Summary for Abril 12, 2017 Units:  Metric    English   Both
« Previous Day
Next Day »
Diari Semanal Mensual Anual Personalitzat
  Maxima: Minima: Mijana:
Temperatura: -17.8 °C -14.4 °C -9 °C
Rosada: -17.8 °C -16.3 °C -15.3 °C
Humitat: Humidity % 25 % 50 %
Velocitat del vent: 0 km/h 0 km/h 5.8 km/h
Racha vent: 0 km/h - -
Vent:- - WSW
Pressio: 0 hPa 34418.7 hPa -
Pluja: 0 mm    
Historical Graphs
 
 
Tabular Data for Abril 12, 2017
Time Temperature Dew Point Pressure Wind Wind Speed Wind Gust Humidity Rainfall Rate (Hourly) solar Conditions
-17.8 °C -17.8 °C 0 hPa Calm     Humidity % 0 mm SolarRadiationWatts/m^2 W/m2 Conditions
00:03 -8.1 °C -15.5 °C 34554.1 hPa West 35.7 km/h 35.7 km/h 41 % 0 mm 0.0 W/m2 CLR
00:08 -8.1 °C -15.6 °C 34554.1 hPa West 31.1 km/h 31.1 km/h 41 % 0 mm 0.0 W/m2 CLR
00:13 -8.2 °C -15.6 °C 34554.1 hPa West 29.8 km/h 29.8 km/h 41 % 0 mm 0.0 W/m2 CLR
00:18 -8.2 °C -15.7 °C 34554.1 hPa West 31.1 km/h 31.1 km/h 41 % 0 mm 0.0 W/m2 CLR
00:23 -8.3 °C -15.7 °C 34554.1 hPa West 32.8 km/h 32.8 km/h 41 % 0 mm 0.0 W/m2 CLR
00:28 -8.3 °C -15.6 °C 34554.1 hPa WSW 6 km/h 6 km/h 42 % 0 mm 0.0 W/m2 CLR
00:33 -8.6 °C -15.8 °C 34554.1 hPa West 9 km/h 9 km/h 42 % 0 mm 0.0 W/m2 CLR
00:38 -8.8 °C -15.8 °C 34554.1 hPa WSW 15 km/h 15 km/h 43 % 0 mm 0.0 W/m2 CLR
00:43 -8.8 °C -15.9 °C 34554.1 hPa WSW 11.9 km/h 11.9 km/h 43 % 0 mm 0.0 W/m2 CLR
00:48 -8.9 °C -15.7 °C 34554.1 hPa West 15 km/h 15 km/h 44 % 0 mm 0.0 W/m2 CLR
00:53 -9 °C -15.8 °C 34567.7 hPa West 11.9 km/h 11.9 km/h 44 % 0 mm 0.0 W/m2 CLR
00:58 -9.1 °C -15.9 °C 34567.7 hPa WSW 9 km/h 9 km/h 44 % 0 mm 0.0 W/m2 CLR
01:03 -9.2 °C -15.8 °C 34554.1 hPa WSW 10.3 km/h 10.3 km/h 45 % 0 mm 0.0 W/m2 CLR
01:08 -9.3 °C -15.7 °C 34567.7 hPa WSW 11.9 km/h 11.9 km/h 46 % 0 mm 0.0 W/m2 CLR
01:13 -9.3 °C -15.7 °C 34567.7 hPa WSW 6 km/h 6 km/h 46 % 0 mm 0.0 W/m2 CLR
01:18 -9.4 °C -15.8 °C 34554.1 hPa West 9 km/h 9 km/h 46 % 0 mm 0.0 W/m2 CLR
01:28 -9.4 °C -15.7 °C 34554.1 hPa West 9 km/h 9 km/h 47 % 0 mm 0.0 W/m2 CLR
01:33 -9.4 °C -15.5 °C 34554.1 hPa West 9 km/h 9 km/h 48 % 0 mm 0.0 W/m2 CLR
01:38 -9.4 °C -15.5 °C 34554.1 hPa WSW 9 km/h 9 km/h 48 % 0 mm 0.0 W/m2 CLR
01:43 -9.5 °C -15.6 °C 34554.1 hPa West 15.6 km/h 15.6 km/h 48 % 0 mm 0.0 W/m2 CLR
01:48 -9.6 °C -15.6 °C 34554.1 hPa West 17.9 km/h 17.9 km/h 48 % 0 mm 0.0 W/m2 CLR
01:53 -9.5 °C -15.6 °C 34567.7 hPa West 20.8 km/h 20.8 km/h 48 % 0 mm 0.0 W/m2 CLR
01:58 -9.5 °C -15.6 °C 34567.7 hPa West 17.9 km/h 17.9 km/h 48 % 0 mm 0.0 W/m2 CLR
02:03 -9.6 °C -15.7 °C 34567.7 hPa WSW 15.6 km/h 15.6 km/h 48 % 0 mm 0.0 W/m2 CLR
02:08 -9.6 °C -15.7 °C 34567.7 hPa West 17.9 km/h 17.9 km/h 48 % 0 mm 0.0 W/m2 CLR
02:13 -9.6 °C -15.6 °C 34567.7 hPa West 15.6 km/h 15.6 km/h 48 % 0 mm 0.0 W/m2 CLR
02:18 -9.6 °C -15.6 °C 34567.7 hPa West 9 km/h 9 km/h 48 % 0 mm 0.0 W/m2 CLR
02:23 -9.6 °C -15.5 °C 34567.7 hPa Calm     49 % 0 mm 0.0 W/m2 CLR
02:28 -10.1 °C -15.7 °C 34567.7 hPa Calm     51 % 0 mm 0.0 W/m2 CLR
02:33 -10.7 °C -15.7 °C 34567.7 hPa WSW 9 km/h 9 km/h 54 % 0 mm 0.0 W/m2 CLR
02:38 -11 °C -15.7 °C 34567.7 hPa WSW 5.1 km/h 5.1 km/h 56 % 0 mm 0.0 W/m2 CLR
02:43 -10.9 °C -15.7 °C 34567.7 hPa WNW 7.7 km/h 7.7 km/h 56 % 0 mm 0.0 W/m2 CLR
02:48 -10.7 °C -15.6 °C 34567.7 hPa Calm     55 % 0 mm 0.0 W/m2 CLR
02:53 -10.6 °C -15.5 °C 34567.7 hPa Calm     55 % 0 mm 0.0 W/m2 CLR
02:58 -10.7 °C -15.6 °C 34567.7 hPa Calm     55 % 0 mm 0.0 W/m2 CLR
03:03 -10.9 °C -15.7 °C 34567.7 hPa Calm     56 % 0 mm 0.0 W/m2 CLR
03:08 -11.2 °C -15.7 °C 34567.7 hPa Calm     57 % 0 mm 0.0 W/m2 CLR
03:13 -11.3 °C -15.8 °C 34567.7 hPa Calm     58 % 0 mm 0.0 W/m2 CLR
03:18 -11.6 °C -15.7 °C 34567.7 hPa Calm     60 % 0 mm 0.0 W/m2 CLR
03:23 -11.6 °C -15.6 °C 34567.7 hPa Calm     61 % 0 mm 0.0 W/m2 CLR
03:28 -11.6 °C -15.7 °C 34567.7 hPa Calm     61 % 0 mm 0.0 W/m2 CLR
03:33 -11.8 °C -15.7 °C 34567.7 hPa Calm     62 % 0 mm 0.0 W/m2 CLR
03:38 -12.1 °C -15.8 °C 34567.7 hPa Calm     63 % 0 mm 0.0 W/m2 CLR
03:43 -12.2 °C -15.8 °C 34567.7 hPa Calm     64 % 0 mm 0.0 W/m2 CLR
03:48 -12.3 °C -15.8 °C 34567.7 hPa Calm     65 % 0 mm 0.0 W/m2 CLR
03:53 -12.6 °C -15.9 °C 34567.7 hPa Calm     66 % 0 mm 0.0 W/m2 CLR
03:58 -12.8 °C -16 °C 34567.7 hPa Calm     67 % 0 mm 0.0 W/m2 CLR
04:03 -12.9 °C -16 °C 34567.7 hPa Calm     68 % 0 mm 0.0 W/m2 CLR
04:08 -13 °C -15.9 °C 34567.7 hPa Calm     70 % 0 mm 0.0 W/m2 CLR
04:13 -13 °C -16 °C 34567.7 hPa Calm     69 % 0 mm 0.0 W/m2 CLR
04:18 -13.1 °C -16.1 °C 34567.7 hPa Calm     69 % 0 mm 0.0 W/m2 CLR
04:23 -13.2 °C -16.1 °C 34567.7 hPa Calm     70 % 0 mm 0.0 W/m2 CLR
04:28 -13.3 °C -16.1 °C 34567.7 hPa Calm     71 % 0 mm 0.0 W/m2 CLR
04:33 -13.3 °C -15.9 °C 34567.7 hPa Calm     72 % 0 mm 0.0 W/m2 CLR
04:38 -13.3 °C -15.9 °C 34567.7 hPa Calm     72 % 0 mm 0.0 W/m2 CLR
04:43 -13.4 °C -16 °C 34567.7 hPa Calm     72 % 0 mm 0.0 W/m2 CLR
04:48 -13.4 °C -16.1 °C 34567.7 hPa Calm     72 % 0 mm 0.0 W/m2 CLR
04:49 -13.4 °C -16.1 °C 34567.7 hPa Calm     72 % 0 mm 0.0 W/m2 CLR
04:54 -13.6 °C -16 °C 34567.7 hPa Calm     74 % 0 mm 0.0 W/m2 CLR
04:59 -13.7 °C -16.1 °C 34567.7 hPa Calm     74 % 0 mm 0.0 W/m2 CLR
05:04 -13.6 °C -16 °C 34567.7 hPa Calm     74 % 0 mm 0.0 W/m2 CLR
05:09 -13.7 °C -16.1 °C 34567.7 hPa Calm     74 % 0 mm 0.0 W/m2 CLR
05:14 -13.7 °C -16 °C 34567.7 hPa Calm     75 % 0 mm 0.0 W/m2 CLR
05:19 -13.7 °C -16 °C 34567.7 hPa Calm     75 % 0 mm 0.0 W/m2 CLR
05:24 -13.7 °C -16 °C 34567.7 hPa Calm     75 % 0 mm 0.0 W/m2 CLR
05:29 -13.7 °C -16.1 °C 34567.7 hPa Calm     74 % 0 mm 0.0 W/m2 CLR
05:34 -13.7 °C -16.1 °C 34567.7 hPa Calm     75 % 0 mm 0.0 W/m2 CLR
05:44 -13.7 °C -16 °C 34567.7 hPa Calm     75 % 0 mm 0.0 W/m2 CLR
05:49 -13.7 °C -16 °C 34567.7 hPa Calm     75 % 0 mm 0.0 W/m2 CLR
05:54 -13.7 °C -15.8 °C 34567.7 hPa Calm   2.6 km/h 76 % 0 mm 0.0 W/m2 CLR
05:59 -13.6 °C -15.9 °C 34567.7 hPa Calm     75 % 0 mm 0.0 W/m2 CLR
06:04 -13.4 °C -15.8 °C 34567.7 hPa SW 9 km/h 9 km/h 75 % 0 mm 0.0 W/m2 CLR
06:09 -13.4 °C -15.8 °C 34567.7 hPa Calm     74 % 0 mm 0.0 W/m2 CLR
06:15 -13.4 °C -15.8 °C 34567.7 hPa Calm     74 % 0 mm 0.0 W/m2 CLR
06:20 -13.4 °C -15.8 °C 34567.7 hPa Calm     74 % 0 mm 0.0 W/m2 CLR
06:25 -13.4 °C -15.8 °C 34567.7 hPa Calm     74 % 0 mm 0.0 W/m2 CLR
06:30 -13.5 °C -16.1 °C 34567.7 hPa Calm     73 % 0 mm 0.0 W/m2 CLR
06:35 -13.7 °C -15.9 °C 34567.7 hPa Calm     75 % 0 mm 0.0 W/m2 CLR
06:40 -13.7 °C -16.1 °C 34567.7 hPa Calm     75 % 0 mm 0.0 W/m2 CLR
06:45 -13.8 °C -15.9 °C 34567.7 hPa Calm     76 % 0 mm 0.0 W/m2 CLR
06:50 -13.8 °C -16.1 °C 34567.7 hPa Calm     76 % 0 mm 0.0 W/m2 CLR
06:55 -14 °C -16.1 °C 34577.8 hPa Calm     77 % 0 mm 0.0 W/m2 CLR
07:00 -14.1 °C -16.2 °C 34577.8 hPa Calm     77 % 0 mm 0.0 W/m2 CLR
07:05 -14.1 °C -16.1 °C 34577.8 hPa Calm     78 % 0 mm 0.0 W/m2 CLR
07:10 -14.2 °C -16.2 °C 34577.8 hPa Calm     78 % 0 mm 0.0 W/m2 CLR
07:15 -14.3 °C -16.3 °C 34577.8 hPa Calm     78 % 0 mm 0.0 W/m2 OVC
07:20 -14.4 °C -16.3 °C 34577.8 hPa Calm     79 % 0 mm 0.0 W/m2 OVC
07:25 -14.4 °C -16.2 °C 34577.8 hPa Calm     80 % 0 mm 0.0 W/m2 OVC
07:30 -14.4 °C -16.2 °C 34591.4 hPa Calm     80 % 0 mm 7.0 W/m2 BKN
07:35 -14.4 °C -16.2 °C 34591.4 hPa Calm     80 % 0 mm 9.0 W/m2 BKN
07:40 -14.3 °C -16.2 °C 34591.4 hPa Calm     80 % 0 mm 12.0 W/m2 BKN
07:45 -14.3 °C -16.1 °C 34591.4 hPa Calm     80 % 0 mm 14.0 W/m2 BKN
07:50 -14.3 °C -16.1 °C 34591.4 hPa Calm     80 % 0 mm 18.0 W/m2 BKN
07:55 -14.3 °C -16.1 °C 34591.4 hPa Calm     80 % 0 mm 23.0 W/m2 BKN
08:00 -14.3 °C -16.1 °C 34591.4 hPa Calm     80 % 0 mm 32.0 W/m2 BKN
08:05 -14.3 °C -16.1 °C 34591.4 hPa Calm     80 % 0 mm 40.0 W/m2 BKN
08:10 -14.2 °C -15.9 °C 34601.5 hPa Calm     80 % 0 mm 53.0 W/m2 SCT
08:15 -14.1 °C -15.9 °C 34601.5 hPa Calm     79 % 0 mm 69.0 W/m2 FEW
08:20 -13.9 °C -15.8 °C 34601.5 hPa Calm     79 % 0 mm 63.0 W/m2 SCT
08:25 -13.8 °C -15.8 °C 34601.5 hPa Calm     78 % 0 mm 98.0 W/m2 CLR
08:30 -13.6 °C -15.7 °C 34601.5 hPa Calm     77 % 0 mm 116.0 W/m2 CLR
08:35 -13.4 °C -15.6 °C 34601.5 hPa Calm     76 % 0 mm 137.0 W/m2 CLR
08:40 -13.2 °C -15.6 °C 34601.5 hPa Calm     75 % 0 mm 153.0 W/m2 CLR
08:45 -13.1 °C -15.5 °C 34601.5 hPa Calm     74 % 0 mm 172.0 W/m2 CLR
08:50 -12.9 °C -15.3 °C 34601.5 hPa Calm     74 % 0 mm 192.0 W/m2 CLR
08:55 -12.6 °C -15.3 °C 34601.5 hPa Calm     72 % 0 mm 47.0 W/m2 CLR
09:00 -12.4 °C -15.1 °C 34601.5 hPa Calm     72 % 0 mm 181.0 W/m2 FEW
09:05 -12.2 °C -15 °C 34601.5 hPa Calm     71 % 0 mm 246.0 W/m2 FEW
09:10 -11.9 °C -15.1 °C 34601.5 hPa Calm     68 % 0 mm 265.0 W/m2 CLR
09:15 -11.8 °C -14.9 °C 34591.4 hPa Calm     68 % 0 mm 283.0 W/m2 CLR
09:20 -11.7 °C -14.9 °C 34591.4 hPa Calm     67 % 0 mm 301.0 W/m2 CLR
09:25 -11.4 °C -14.7 °C 34591.4 hPa Calm     67 % 0 mm 316.0 W/m2 CLR
09:30 -11.2 °C -14.8 °C 34591.4 hPa Calm     65 % 0 mm 334.0 W/m2 CLR
09:35 -11.1 °C -14.6 °C 34591.4 hPa Calm     65 % 0 mm 348.0 W/m2 CLR
09:40 -10.9 °C -14.6 °C 34591.4 hPa Calm     64 % 0 mm 369.0 W/m2 CLR
09:45 -10.8 °C -14.6 °C 34591.4 hPa Calm     63 % 0 mm 385.0 W/m2 CLR
09:50 -10.7 °C -14.5 °C 34591.4 hPa Calm     63 % 0 mm 399.0 W/m2 CLR
09:55 -10.4 °C -14.4 °C 34591.4 hPa Calm     62 % 0 mm 413.0 W/m2 CLR
10:00 -10.2 °C -14.3 °C 34591.4 hPa Calm     61 % 0 mm 432.0 W/m2 CLR
10:05 -9.9 °C -14 °C 34591.4 hPa Calm     61 % 0 mm 448.0 W/m2 CLR
10:15 -9.6 °C -13.8 °C 34577.8 hPa NW 26.9 km/h 26.9 km/h 60 % 0 mm 478.0 W/m2 CLR
10:30 -9.4 °C -13.8 °C 34591.4 hPa West 26.9 km/h 26.9 km/h 59 % 0 mm 524.0 W/m2 CLR
10:33 -9.4 °C -14 °C 34591.4 hPa West 15 km/h 15 km/h 58 % 0 mm 533.0 W/m2 CLR
10:38 -9.3 °C -13.9 °C 34591.4 hPa WNW 29.8 km/h 29.8 km/h 58 % 0 mm 547.0 W/m2 CLR
10:43 -9.4 °C -14.1 °C 34591.4 hPa WNW 20.9 km/h 20.9 km/h 57 % 0 mm 561.0 W/m2 CLR
10:48 -9.3 °C -13.9 °C 34591.4 hPa NNW 23.8 km/h 23.8 km/h 58 % 0 mm 575.0 W/m2 CLR
10:53 -9.2 °C -13.8 °C 34577.8 hPa NW 17.9 km/h 17.9 km/h 58 % 0 mm 589.0 W/m2 CLR
10:58 -9.1 °C -13.8 °C 34577.8 hPa WNW 20.9 km/h 20.9 km/h 57 % 0 mm 601.0 W/m2 CLR
11:03 -9.1 °C -13.8 °C 34577.8 hPa WNW 9 km/h 9 km/h 57 % 0 mm 615.0 W/m2 CLR
11:08 -9 °C -13.7 °C 34577.8 hPa West 12.9 km/h 12.9 km/h 57 % 0 mm 631.0 W/m2 CLR
11:13 -8.8 °C -13.7 °C 34591.4 hPa WNW 20.8 km/h 20.8 km/h 56 % 0 mm 642.0 W/m2 CLR
11:18 -8.7 °C -13.8 °C 34591.4 hPa West 5.1 km/h 5.1 km/h 55 % 0 mm 656.0 W/m2 CLR
11:23 -8.7 °C -14 °C 34577.8 hPa WNW 17.9 km/h 17.9 km/h 53 % 0 mm 668.0 W/m2 CLR
11:28 -8.6 °C -13.9 °C 34577.8 hPa WNW 9 km/h 9 km/h 53 % 0 mm 679.0 W/m2 CLR
11:33 -8.5 °C -13.8 °C 34577.8 hPa NNW 11.9 km/h 11.9 km/h 53 % 0 mm 691.0 W/m2 CLR
11:38 -8.3 °C -13.6 °C 34577.8 hPa NNE 6 km/h 6 km/h 54 % 0 mm 701.0 W/m2 CLR
11:43 -8.2 °C -14 °C 34577.8 hPa WNW 17.9 km/h 17.9 km/h 50 % 0 mm 712.0 W/m2 CLR
11:48 -8.2 °C -13.7 °C 34577.8 hPa NW 26.9 km/h 26.9 km/h 52 % 0 mm 724.0 W/m2 CLR
11:53 -8.1 °C -13.9 °C 34577.8 hPa WNW 23.8 km/h 23.8 km/h 50 % 0 mm 735.0 W/m2 CLR
11:58 -8.1 °C -13.9 °C 34577.8 hPa Calm   5.1 km/h 50 % 0 mm 745.0 W/m2 CLR
12:03 -7.9 °C -13.9 °C 34577.8 hPa NW 23.8 km/h 23.8 km/h 49 % 0 mm 754.0 W/m2 CLR
12:08 -7.6 °C -13.8 °C 34567.7 hPa North 3.1 km/h   48 % 0 mm 765.0 W/m2 CLR
12:13 -7.5 °C -14.1 °C 34567.7 hPa WNW 26.9 km/h 26.9 km/h 46 % 0 mm 773.0 W/m2 CLR
12:18 -7.5 °C -14.3 °C 34577.8 hPa NW 11.9 km/h 11.9 km/h 45 % 0 mm 782.0 W/m2 CLR
12:23 -7.4 °C -14 °C 34567.7 hPa Calm     46 % 0 mm 793.0 W/m2 CLR
12:28 -7.4 °C -14.6 °C 34567.7 hPa NW 17.9 km/h 17.9 km/h 43 % 0 mm 800.0 W/m2 CLR
12:33 -7.4 °C -14.3 °C 34567.7 hPa West 17.9 km/h 17.9 km/h 44 % 0 mm 805.0 W/m2 CLR
12:38 -7.2 °C -14 °C 34567.7 hPa NNW 17.9 km/h 17.9 km/h 45 % 0 mm 814.0 W/m2 CLR
12:43 -7.1 °C -13.9 °C 34554.1 hPa NNW 15 km/h   45 % 0 mm 816.0 W/m2 CLR
12:48 -7.1 °C -13.8 °C 34554.1 hPa West 20.8 km/h 20.8 km/h 45 % 0 mm 828.0 W/m2 CLR
12:54 -7 °C -14.6 °C 34554.1 hPa West 25.9 km/h 25.9 km/h 41 % 0 mm 840.0 W/m2 CLR
12:59 -6.8 °C -14.6 °C 34554.1 hPa North 9 km/h   40 % 0 mm 844.0 W/m2 CLR
13:04 -6.6 °C -14.1 °C 34554.1 hPa NW 18.2 km/h 18.2 km/h 42 % 0 mm 847.0 W/m2 CLR
13:09 -6.7 °C -14.3 °C 34554.1 hPa Calm     41 % 0 mm 853.0 W/m2 CLR
13:14 -6.5 °C -14.9 °C 34544 hPa Calm     37 % 0 mm 856.0 W/m2 CLR
13:19 -6.4 °C -14.2 °C 34544 hPa NNW 12.9 km/h 15.8 km/h 40 % 0 mm 860.0 W/m2 CLR
13:24 -6.5 °C -14.5 °C 34544 hPa Calm     39 % 0 mm 863.0 W/m2 CLR
13:29 -6.5 °C -14.3 °C 34544 hPa Calm     40 % 0 mm 865.0 W/m2 CLR
13:34 -6.3 °C -13.8 °C 34544 hPa Calm     42 % 0 mm 867.0 W/m2 CLR
13:39 -6 °C -14.1 °C 34544 hPa South 3.1 km/h   39 % 0 mm 877.0 W/m2 CLR
13:44 -5.8 °C -14.1 °C 34533.8 hPa Calm     38 % 0 mm 872.0 W/m2 CLR
13:49 -5.8 °C -13.9 °C 34533.8 hPa Calm     39 % 0 mm 874.0 W/m2 CLR
13:54 -5.7 °C -14 °C 34533.8 hPa NW 15 km/h 15 km/h 38 % 0 mm 872.0 W/m2 CLR
13:59 -5.8 °C -14.1 °C 34520.3 hPa Calm     38 % 0 mm 874.0 W/m2 CLR
14:04 -5.9 °C -14.3 °C 34520.3 hPa NE 15.6 km/h 15.6 km/h 37 % 0 mm 875.0 W/m2 CLR
14:09 -5.8 °C -14.8 °C 34520.3 hPa NE 6 km/h   35 % 0 mm 874.0 W/m2 CLR
14:14 -5.7 °C -14.7 °C 34520.3 hPa North 9 km/h 9 km/h 35 % 0 mm 877.0 W/m2 CLR
14:24 -5.7 °C -14.2 °C 34510.1 hPa WNW 15 km/h 15 km/h 37 % 0 mm 874.0 W/m2 CLR
14:29 -5.7 °C -14.2 °C 34510.1 hPa ENE 15 km/h 15 km/h 37 % 0 mm 867.0 W/m2 CLR
14:34 -5.6 °C -14.3 °C 34510.1 hPa ENE 2.6 km/h   36 % 0 mm 867.0 W/m2 CLR
14:39 -5.4 °C -14.4 °C 34510.1 hPa Calm     35 % 0 mm 860.0 W/m2 CLR
14:44 -5.2 °C -14.5 °C 34496.6 hPa NE 9 km/h 9 km/h 34 % 0 mm 860.0 W/m2 CLR
14:49 -5.3 °C -14.8 °C 34496.6 hPa Calm     33 % 0 mm 854.0 W/m2 CLR
14:54 -5.2 °C -14.5 °C 34496.6 hPa NNW 6 km/h 6 km/h 34 % 0 mm 853.0 W/m2 CLR
14:59 -5.2 °C -14.7 °C 34496.6 hPa North 20.9 km/h 20.9 km/h 33 % 0 mm 847.0 W/m2 CLR
15:04 -5.2 °C -14.7 °C 34496.6 hPa North 15 km/h 15 km/h 33 % 0 mm 844.0 W/m2 CLR
15:09 -5.1 °C -14.8 °C 34496.6 hPa NNW 17.9 km/h 17.9 km/h 32 % 0 mm 838.0 W/m2 CLR
15:14 -5.2 °C -14.7 °C 34486.4 hPa WNW 11.9 km/h 11.9 km/h 33 % 0 mm 833.0 W/m2 CLR
15:19 -5.1 °C -14.6 °C 34486.4 hPa NNW 17.9 km/h 17.9 km/h 33 % 0 mm 828.0 W/m2 CLR
15:24 -5 °C -15.1 °C 34486.4 hPa North 9 km/h 9 km/h 31 % 0 mm 823.0 W/m2 CLR
15:29 -4.9 °C -14.9 °C 34486.4 hPa NNE 9 km/h 9 km/h 31 % 0 mm 814.0 W/m2 CLR
15:34 -4.8 °C -14.3 °C 34486.4 hPa NNW 15.6 km/h 15.6 km/h 33 % 0 mm 807.0 W/m2 CLR
15:39 -4.7 °C -14.5 °C 34476.3 hPa NNW 10.3 km/h 10.3 km/h 32 % 0 mm 800.0 W/m2 CLR
15:44 -4.6 °C -14.2 °C 34476.3 hPa NNW 10.3 km/h 10.3 km/h 33 % 0 mm 793.0 W/m2 CLR
15:49 -4.6 °C -14.4 °C 34476.3 hPa Calm     32 % 0 mm 784.0 W/m2 CLR
15:54 -4.6 °C -14.4 °C 34476.3 hPa NE 5.1 km/h 5.1 km/h 32 % 0 mm 775.0 W/m2 CLR
15:59 -4.5 °C -14.6 °C 34462.7 hPa NNW 15 km/h 15 km/h 31 % 0 mm 765.0 W/m2 CLR
16:04 -4.6 °C -14.9 °C 34462.7 hPa NNE 15 km/h 15 km/h 30 % 0 mm 758.0 W/m2 CLR
16:09 -4.7 °C -15.1 °C 34462.7 hPa Calm     30 % 0 mm 749.0 W/m2 CLR
16:14 -4.6 °C -14.7 °C 34462.7 hPa SSW 9 km/h 9 km/h 31 % 0 mm 740.0 W/m2 CLR
16:19 -4.3 °C -14.5 °C 34452.6 hPa NNW 15 km/h 15 km/h 31 % 0 mm 731.0 W/m2 CLR
16:24 -4.3 °C -14.7 °C 34452.6 hPa NNW 6 km/h   30 % 0 mm 719.0 W/m2 CLR
16:29 -4.3 °C -14.7 °C 34452.6 hPa North 15 km/h 15 km/h 30 % 0 mm 705.0 W/m2 CLR
16:34 -4.4 °C -15.1 °C 34452.6 hPa NNW 11.9 km/h 11.9 km/h 29 % 0 mm 693.0 W/m2 CLR
16:39 -4.3 °C -14.9 °C 34442.4 hPa North 11.9 km/h 11.9 km/h 29 % 0 mm 680.0 W/m2 CLR
16:44 -4.4 °C -14.8 °C 34442.4 hPa NNW 10.3 km/h 10.3 km/h 30 % 0 mm 670.0 W/m2 CLR
16:54 -4.2 °C -14.8 °C 34442.4 hPa North 15 km/h 15 km/h 29 % 0 mm 643.0 W/m2 CLR
16:59 -4.1 °C -15.1 °C 34442.4 hPa WNW 9 km/h 9 km/h 28 % 0 mm 631.0 W/m2 CLR
17:04 -4.2 °C -15.4 °C 34442.4 hPa NNW 20.8 km/h 20.8 km/h 27 % 0 mm 617.0 W/m2 CLR
17:09 -4.3 °C -14.9 °C 34442.4 hPa WNW 17.9 km/h 17.9 km/h 29 % 0 mm 606.0 W/m2 CLR
17:14 -4.4 °C -15.3 °C 34442.4 hPa NNW 11.9 km/h 11.9 km/h 28 % 0 mm 589.0 W/m2 CLR
17:19 -4.3 °C -14.9 °C 34442.4 hPa NNW 17.9 km/h 17.9 km/h 29 % 0 mm 575.0 W/m2 CLR
17:24 -4.3 °C -15.2 °C 34442.4 hPa NNE 17.9 km/h 17.9 km/h 28 % 0 mm 563.0 W/m2 CLR
17:29 -4.4 °C -15.3 °C 34442.4 hPa North 20.9 km/h 20.9 km/h 28 % 0 mm 548.0 W/m2 CLR
17:34 -4.4 °C -15.6 °C 34442.4 hPa NNE 17.9 km/h 17.9 km/h 27 % 0 mm 534.0 W/m2 CLR
17:39 -4.4 °C -15.9 °C 34442.4 hPa NNE 12.9 km/h 12.9 km/h 26 % 0 mm 519.0 W/m2 CLR
17:44 -4.4 °C -15.9 °C 34428.8 hPa North 9 km/h 9 km/h 26 % 0 mm 501.0 W/m2 CLR
17:49 -4.3 °C -15.9 °C 34428.8 hPa Calm     26 % 0 mm 485.0 W/m2 CLR
17:54 -4.2 °C -15.8 °C 34428.8 hPa Calm   3.7 km/h 26 % 0 mm 471.0 W/m2 CLR
17:59 -4.1 °C -15.7 °C 34442.4 hPa NNE 6 km/h   26 % 0 mm 457.0 W/m2 CLR
18:04 -4.1 °C -15.9 °C 34442.4 hPa NE 9 km/h 9 km/h 25 % 0 mm 441.0 W/m2 CLR
18:09 -4.1 °C -15.7 °C 34428.8 hPa Calm   0.3 km/h 26 % 0 mm 424.0 W/m2 CLR
18:14 -4.1 °C -16 °C 34428.8 hPa NW 11.9 km/h 11.9 km/h 25 % 0 mm 408.0 W/m2 CLR
18:19 -4.2 °C -15.8 °C 34428.8 hPa NNW 9 km/h 9 km/h 26 % 0 mm 392.0 W/m2 CLR
18:25 -4.1 °C -15.7 °C 34428.8 hPa North 11.9 km/h 11.9 km/h 26 % 0 mm 373.0 W/m2 CLR
18:30 -4.1 °C -15.7 °C 34428.8 hPa NW 10.3 km/h 10.3 km/h 26 % 0 mm 359.0 W/m2 CLR
18:35 -4.2 °C -15.4 °C 34428.8 hPa Calm     27 % 0 mm 343.0 W/m2 CLR
18:40 -4.3 °C -15.5 °C 34428.8 hPa Calm     27 % 0 mm 325.0 W/m2 CLR
18:45 -4.1 °C -15.7 °C 34428.8 hPa Calm     26 % 0 mm 306.0 W/m2 CLR
18:50 -4.1 °C -15.7 °C 34418.7 hPa Calm     26 % 0 mm 292.0 W/m2 CLR
18:55 -4.1 °C -15.6 °C 34428.8 hPa Calm     26 % 0 mm 274.0 W/m2 CLR
19:00 -4.1 °C -15.7 °C 34428.8 hPa ENE 2.6 km/h   26 % 0 mm 251.0 W/m2 CLR
19:05 -4.2 °C -15.7 °C 34418.7 hPa ENE 9 km/h 9 km/h 26 % 0 mm 236.0 W/m2 CLR
19:10 -4.3 °C -15.8 °C 34418.7 hPa ENE 6 km/h 6 km/h 26 % 0 mm 216.0 W/m2 CLR
19:15 -4.4 °C -15.9 °C 34418.7 hPa Calm     26 % 0 mm 197.0 W/m2 CLR
19:20 -4.4 °C -15.7 °C 34418.7 hPa ENE 6 km/h 6 km/h 27 % 0 mm 178.0 W/m2 CLR
19:25 -4.5 °C -16 °C 34418.7 hPa ENE 3.1 km/h 3.1 km/h 26 % 0 mm 155.0 W/m2 CLR
19:30 -4.6 °C -16.1 °C 34418.7 hPa Calm     26 % 0 mm 137.0 W/m2 CLR
19:35 -4.6 °C -15.8 °C 34418.7 hPa Calm     27 % 0 mm 120.0 W/m2 CLR
19:40 -4.6 °C -16.1 °C 34418.7 hPa Calm     26 % 0 mm 104.0 W/m2 CLR
19:45 -4.7 °C -15.9 °C 34418.7 hPa Calm     27 % 0 mm 84.0 W/m2 CLR
19:50 -4.8 °C -15.9 °C 34418.7 hPa Calm     27 % 0 mm 67.0 W/m2 FEW
19:55 -4.8 °C -15.9 °C 34418.7 hPa Calm     27 % 0 mm 49.0 W/m2 SCT
20:00 -4.8 °C -16 °C 34418.7 hPa Calm     27 % 0 mm 42.0 W/m2 BKN
20:05 -4.9 °C -16.1 °C 34418.7 hPa Calm     27 % 0 mm 32.0 W/m2 BKN
20:10 -5 °C -16.1 °C 34418.7 hPa Calm     27 % 0 mm 19.0 W/m2 BKN
20:15 -5.1 °C -16.2 °C 34418.7 hPa Calm     27 % 0 mm 14.0 W/m2 BKN
20:20 -5.3 °C -16.1 °C 34418.7 hPa Calm     28 % 0 mm 12.0 W/m2 BKN
20:25 -5.4 °C -16.2 °C 34418.7 hPa Calm     28 % 0 mm 9.0 W/m2 BKN
20:30 -5.5 °C -16 °C 34418.7 hPa Calm     29 % 0 mm 7.0 W/m2 BKN
20:35 -5.7 °C -16.1 °C 34418.7 hPa Calm     29 % 0 mm 5.0 W/m2 OVC
20:40 -5.7 °C -16.2 °C 34418.7 hPa Calm     29 % 0 mm 0.0 W/m2 OVC
20:45 -5.9 °C -15.8 °C 34418.7 hPa Calm     31 % 0 mm 0.0 W/m2 OVC
20:50 -6.1 °C -15.7 °C 34418.7 hPa Calm     32 % 0 mm 0.0 W/m2 CLR
20:55 -6.3 °C -15.4 °C 34418.7 hPa Calm     34 % 0 mm 0.0 W/m2 CLR
21:00 -6.7 °C -15.1 °C 34418.7 hPa Calm     37 % 0 mm 0.0 W/m2 CLR
21:05 -7.1 °C -15.2 °C 34418.7 hPa Calm     38 % 0 mm 0.0 W/m2 CLR
21:10 -7.4 °C -15.3 °C 34428.8 hPa Calm     39 % 0 mm 0.0 W/m2 CLR
21:15 -7.7 °C -15.2 °C 34428.8 hPa Calm     41 % 0 mm 0.0 W/m2 CLR
21:20 -8 °C -15.1 °C 34428.8 hPa Calm     43 % 0 mm 0.0 W/m2 CLR
21:30 -8.7 °C -15.1 °C 34442.4 hPa Calm     46 % 0 mm 0.0 W/m2 CLR
21:35 -8.9 °C -15 °C 34442.4 hPa Calm     48 % 0 mm 0.0 W/m2 CLR
21:40 -9.2 °C -15.1 °C 34442.4 hPa Calm     49 % 0 mm 0.0 W/m2 CLR
21:45 -9.3 °C -15.2 °C 34442.4 hPa Calm     49 % 0 mm 0.0 W/m2 CLR
21:50 -9.4 °C -15.2 °C 34442.4 hPa Calm     50 % 0 mm 0.0 W/m2 CLR
21:55 -9.5 °C -15.2 °C 34452.6 hPa Calm     50 % 0 mm 0.0 W/m2 CLR
22:00 -9.6 °C -15.1 °C 34452.6 hPa Calm     51 % 0 mm 0.0 W/m2 CLR
22:05 -9.6 °C -15.1 °C 34452.6 hPa Calm     52 % 0 mm 0.0 W/m2 CLR
22:10 -9.8 °C -15.2 °C 34452.6 hPa Calm     52 % 0 mm 0.0 W/m2 CLR
22:15 -9.9 °C -15.2 °C 34452.6 hPa Calm     53 % 0 mm 0.0 W/m2 CLR
22:20 -10.1 °C -15.2 °C 34462.7 hPa Calm     54 % 0 mm 0.0 W/m2 CLR
22:25 -10.2 °C -15.3 °C 34462.7 hPa Calm     54 % 0 mm 0.0 W/m2 CLR
22:30 -10.3 °C -15.1 °C 34462.7 hPa Calm     56 % 0 mm 0.0 W/m2 CLR
22:35 -10.4 °C -15.2 °C 34462.7 hPa Calm     56 % 0 mm 0.0 W/m2 CLR
22:40 -10.5 °C -15.1 °C 34462.7 hPa Calm     57 % 0 mm 0.0 W/m2 CLR
22:45 -10.6 °C -15.1 °C 34462.7 hPa Calm     58 % 0 mm 0.0 W/m2 CLR
22:50 -10.7 °C -15.2 °C 34462.7 hPa Calm     58 % 0 mm 0.0 W/m2 CLR
22:55 -10.8 °C -15.2 °C 34462.7 hPa Calm     58 % 0 mm 0.0 W/m2 CLR
23:00 -10.8 °C -15.3 °C 34462.7 hPa Calm     58 % 0 mm 0.0 W/m2 CLR
23:05 -10.9 °C -15.3 °C 34462.7 hPa Calm     59 % 0 mm 0.0 W/m2 CLR
23:10 -11.1 °C -15.4 °C 34476.3 hPa Calm     59 % 0 mm 0.0 W/m2 CLR
23:15 -11.1 °C -15.3 °C 34476.3 hPa Calm     60 % 0 mm 0.0 W/m2 CLR
23:20 -11.2 °C -15.3 °C 34476.3 hPa Calm     60 % 0 mm 0.0 W/m2 CLR
23:25 -11.2 °C -15.4 °C 34476.3 hPa Calm     60 % 0 mm 0.0 W/m2 CLR
23:30 -11.3 °C -15.4 °C 34476.3 hPa Calm     61 % 0 mm 0.0 W/m2 CLR
23:35 -11.4 °C -15.4 °C 34476.3 hPa Calm     61 % 0 mm 0.0 W/m2 CLR
23:40 -11.5 °C -15.5 °C 34476.3 hPa Calm     61 % 0 mm 0.0 W/m2 CLR
23:45 -11.5 °C -15.4 °C 34476.3 hPa Calm     62 % 0 mm 0.0 W/m2 CLR
23:50 -11.6 °C -15.5 °C 34476.3 hPa Calm     62 % 0 mm 0.0 W/m2 CLR
23:55 -11.7 °C -15.6 °C 34486.4 hPa Calm     62 % 0 mm 0.0 W/m2 CLR
Lo Temps de Massalio
Compliments of Weather Underground - 1.25 mb